World > North America > United States > Texas > Hedwig Village

Hourly Hedwig Village, TX Regional Weather

Feedback E-mail the Weather

Quick WX

Hedwig Village, TX Weather Maps

°F °C°F °C
Hedwig Village Weather Map
UTC Time: 8/13/2022, 03:13
Your Time:

Hedwig Village, TX Regional Weather

Expires:202208130400;;003168
ASUS44 KSJT 130310
RWRSJT
WEST CENTRAL TEXAS REGIONAL WEATHER ROUNDUP
NATIONAL WEATHER SERVICE SAN ANGELO TX
1000 PM CDT FRI AUG 12 2022

NOTE: "FAIR" INDICATES FEW OR NO CLOUDS BELOW 12,000 FEET WITH NO
SIGNIFICANT WEATHER AND/OR OBSTRUCTIONS TO VISIBILITY.


TXZ163-177-195>197-199-213-226-237-130400-
SOUTHEAST TEXAS
  
CITY           SKY/WX    TMP DP  RH WIND       PRES   REMARKS
COLLEGE STN    PTCLDY    84  72  67 CALM      29.95R                  
CALDWELL       PTCLDY    82  72  70 CALM      29.97R                  
CROCKETT       CLEAR     81  73  78 CALM      29.97R                  
BRENHAM        MOCLDY    81  77  88 CALM      29.96R                  
HUNTSVILLE     MOCLDY    80  78  94 CALM      29.96R                  
CONROE         PTCLDY    80  76  87 CALM      29.96R                  
HOUSTON BUSH   MOCLDY    81  76  84 S3        29.94R                  
HOUSTON HOBBY  MOCLDY    84  73  69 S5        29.94R                  
PERLAND        MOCLDY    81  75  82 CALM      29.96R                  
WHARTON        PTCLDY    77  75  95 CALM      29.96R                  
$$


SKY/WX - Weather  TMP - Temperature  DP - Dew Point  RH - Humidity
WIND - Wind Direction/Speed PRES - Barometric Pressure VSB - Visibility
WCI - Wind Chill Index E13G22 Wind - East Wind 13 mph/Gusts of 22 mph

Trending Headlines

Hedwig Village Radar Loop



Hedwig Village Quick Facts


National Two Day Weather Forecast


E-mail the Hedwig Village Weather Forecast

Voice your opinion or tell us about page issues...